This is the latest recevied weather packets stored in our database for station/object AE0NK. If no packets are shown the sender has not sent any weather packets the latest 1 day(s).
| Time | Temp. | Humidity | Pressure | Rain* | Wind** | Luminosity | Snow |
|---|---|---|---|---|---|---|---|
| 1778103811 | 12.22° C | 37% | 1015.9 hPa | 0 mm | - | 218 W/m² | - |
| 1778103208 | 12.22° C | 35% | 1016 hPa | 0 mm | - | 761 W/m² | - |
| 1778101699 | 12.22° C | 36% | 1016.1 hPa | 0 mm | - | 181 W/m² | - |
| 1778100206 | 12.22° C | 36% | 1016.2 hPa | 0 mm | - | 612 W/m² | - |
| 1778098696 | 11.67° C | 37% | 1016.7 hPa | 0 mm | - | 283 W/m² | - |
| 1778098393 | 11.67° C | 37% | 1016.8 hPa | 0 mm | - | 237 W/m² | - |
| 1778097809 | 11.67° C | 38% | 1016.7 hPa | 0 mm | - | 680 W/m² | - |
| 1778097202 | 11.67° C | 41% | 1016.7 hPa | 0 mm | - | 1005 W/m² | - |
| 1778095094 | 11.67° C | 37% | 1016.6 hPa | 0 mm | - | 258 W/m² | - |
| 1778094811 | 11.67° C | 35% | 1016.6 hPa | 0 mm | - | 297 W/m² | - |
| 1778093904 | 11.67° C | 38% | 1016.8 hPa | 0 mm | - | 318 W/m² | - |
| 1778093602 | 11.67° C | 39% | 1016.9 hPa | 0 mm | - | 580 W/m² | - |
| 1778092400 | 11.67° C | 39% | 1016.7 hPa | 0 mm | - | 381 W/m² | - |
| 1778092098 | 11.11° C | 39% | 1016.8 hPa | 0 mm | - | 376 W/m² | - |
| 1778091797 | 11.67° C | 39% | 1016.8 hPa | 0 mm | - | 287 W/m² | - |
| 1778090594 | 11.67° C | 37% | 1016.8 hPa | 0 mm | - | 341 W/m² | - |
| 1778090305 | 11.67° C | 36% | 1016.7 hPa | 0 mm | - | 1136 W/m² | - |
| 1778089103 | 11.11° C | 39% | 1016.9 hPa | 0 mm | - | 371 W/m² | - |
| 1778087893 | 11.11° C | 38% | 1017.1 hPa | 0 mm | - | 1058 W/m² | - |
| 1778086706 | 12.22° C | 37% | 1017.1 hPa | 0 mm | - | 290 W/m² | - |
| 1778086403 | 11.67° C | 37% | 1016.8 hPa | 0 mm | - | 1058 W/m² | - |
| 1778086101 | 11.11° C | 39% | 1016.9 hPa | 0 mm | - | 882 W/m² | - |
| 1778085196 | 10.56° C | 40% | 1016.9 hPa | 0 mm | - | 239 W/m² | - |
| 1778084894 | 11.11° C | 41% | 1016.9 hPa | 0 mm | - | 1011 W/m² | - |
| 1778084611 | 10.56° C | 40% | 1016.9 hPa | 0 mm | - | 900 W/m² | - |
* Rain latest hour (hover to see other rain measurements)
** Current wind speed in m/s (hover to see current wind gust speed)